Regional Weather Roundup
Issued by NWS

Home | Current Version | Previous Version | Graphics & Text | Print | Product List | Glossary On
Versions: 1 2 3 4 5 6 7 8 9 10 11 12 13 14 15 16 17 18 19 20 21 22 23 24 25 26 27
000
ASUS45 KBOI 250410
RWRID

IDAHO REGIONAL WEATHER ROUNDUP
NATIONAL WEATHER SERVICE BOISE ID
1000 PM MDT WED AUG 24 2016

NOTE: "FAIR" INDICATES FEW OR NO CLOUDS BELOW 12000 FEET
WITH NO SIGNIFICANT WEATHER AND/OR OBSTRUCTIONS TO VISIBILITY

IDZ012-014-250500-
SOUTHWEST IDAHO


CITY           SKY/WX    TMP DP  RH WIND       PRES   REMARKS
BOISE          CLEAR     71  32  23 CALM      30.06R
CALDWELL       CLEAR     69  38  32 W7        30.05S
MOUNTAIN HOME  CLEAR     66  26  22 NW8       30.07R
$$

IDZ016-017-250500-
SOUTHCENTRAL IDAHO


CITY           SKY/WX    TMP DP  RH WIND       PRES   REMARKS
JEROME         CLEAR     63  33  32 W3        30.13R
TWIN FALLS     CLEAR     53  37  54 S14G25    30.15R
$$

IDZ019>023-250500-
SOUTHEAST IDAHO


CITY           SKY/WX    TMP DP  RH WIND       PRES   REMARKS
IDAHO FALLS    CLOUDY    62  35  36 N12       30.20R
POCATELLO      CLEAR     62  34  35 E5        30.18R
REXBURG        MOCLDY    60  33  36 NE12      30.23R
$$

IDZ006-010-011-018-031-032-250500-
CENTRAL IDAHO MOUNTAINS


CITY           SKY/WX    TMP DP  RH WIND       PRES   REMARKS
MCCALL         CLEAR     64  35  34 N17G24    30.20R
HAILEY         PTCLDY    54  36  50 CALM      30.20R
STANLEY          N/A     60  29  30 SW5       30.26R
SALMON         CLEAR     64  34  32 SE13      30.21R
CHALLIS        PTCLDY    59  33  37 NW6       30.23R
$$

IDZ002-004-006-007-026-250500-
NORTHERN IDAHO


CITY           SKY/WX    TMP DP  RH WIND       PRES   REMARKS
LEWISTON       CLEAR     76  41  28 NE6       30.11R
LOWELL           N/A     61  49  64 N3        30.14R
COEUR D`ALENE  CLEAR     68  39  34 N9        30.18R
MULLAN PASS    PTCLDY    52  35  52 VRB5      30.36R
$$




USA.gov is the U.S. government's official web portal to all federal, state and local government web resources and services.